This demonstration page uses our WeatherBlox Daily Observations layout. Learn more.

Left ArrowRight Arrow

41.86663, -103.66717

Hourly Observations for September 11, 2015

Temp ( °F °C ) Dew Point ( °F °C ) Humidity (%) Winds ( mph kmh ) Pressure ( in mb ) Visibility ( mi km ) Precip ( " mm )
12:53 am 00:53 Clear 54 12.2 48 8.9 80 80 NE 12 19 30.19 1022 10 16 N/A
1:53 am 01:53 Cloudy 54 12.2 47 8.3 77 77 NE 9 15 30.20 1023 10 16 N/A
2:53 am 02:53 Mostly Clear 53 11.7 46 7.8 77 77 NE 9 15 30.20 1023 10 16 N/A
3:53 am 03:53 Clear 49 9.4 45 7.2 86 86 N 5 7 30.22 1023 10 16 N/A
4:53 am 04:53 Clear 47 8.3 45 7.2 93 93 NNW 9 15 30.22 1023 10 16 N/A
5:53 am 05:53 Clear 48 8.9 44 6.7 86 86 undefined N/A 30.22 1023 10 16 N/A
6:53 am 06:53 Sunny 48 8.9 44 6.7 86 86 N N/A 30.24 1024 10 16 N/A
7:53 am 07:53 Sunny 54 12.2 47 8.3 77 77 NE 9 15 30.26 1025 10 16 N/A
8:53 am 08:53 Sunny 60 15.6 48 8.9 65 65 NE 8 13 30.24 1024 10 16 N/A
9:53 am 09:53 Sunny 66 18.9 45 7.2 47 47 VRB 7 11 30.22 1023 10 16 N/A
10:53 am 10:53 Sunny 69 20.6 45 7.2 42 42 VRB 6 9 30.21 1023 10 16 N/A
11:53 am 11:53 Sunny 73 22.8 45 7.2 37 37 ENE 9 15 30.19 1022 10 16 N/A
12:53 pm 12:53 Sunny 75 23.9 42 5.6 31 31 undefined N/A 30.16 1021 10 16 N/A
1:53 pm 13:53 Sunny 76 24.4 43 6.1 31 31 S 15 24 30.14 1021 10 16 N/A
2:53 pm 14:53 Sunny 76 24.4 42 5.6 30 30 ENE 8 13 30.11 1020 10 16 N/A
3:53 pm 15:53 Sunny 77 25 42 5.6 29 29 ESE 8 13 30.10 1019 10 16 N/A
4:53 pm 16:53 Partly Cloudy 77 25 43 6.1 30 30 VRB 7 11 30.09 1019 10 16 N/A
5:53 pm 17:53 Sunny 76 24.4 44 6.7 32 32 E 8 13 30.09 1019 10 16 N/A
6:53 pm 18:53 Sunny 70 21.1 47 8.3 44 44 ENE 10 17 30.10 1019 10 16 N/A
7:53 pm 19:53 Clear 63 17.2 48 8.9 58 58 ENE 12 19 30.10 1019 10 16 N/A
8:53 pm 20:53 Clear 59 15 48 8.9 67 67 NE 13 20 30.11 1020 10 16 N/A
9:53 pm 21:53 Clear 58 14.4 48 8.9 70 70 NE 10 17 30.11 1020 10 16 N/A
10:53 pm 22:53 Clear 57 13.9 47 8.3 69 69 ENE 12 19 30.10 1019 10 16 N/A
11:53 pm 23:53 Clear 55 12.8 46 7.8 72 72 ENE 12 19 30.09 1019 10 16 N/A

Powered by AerisWeather